TimeEST,TemperatureF,Dew PointF,Humidity,Sea Level PressureIn,VisibilityMPH,Wind Direction,Wind SpeedMPH,Gust SpeedMPH,PrecipitationIn,Events,Conditions,WindDirDegrees,DateUTC
12:52 AM,32.0,27.0,82,30.37,10.0,East,8.1,-,N/A,,Partly Cloudy,80,2013-03-09 05:52:00
1:52 AM,30.9,27.0,85,30.35,10.0,East,6.9,-,N/A,,Partly Cloudy,90,2013-03-09 06:52:00
2:52 AM,30.9,27.0,85,30.33,9.0,East,5.8,-,N/A,,Mostly Cloudy,100,2013-03-09 07:52:00
3:52 AM,32.0,27.0,82,30.32,10.0,East,4.6,-,N/A,,Mostly Cloudy,100,2013-03-09 08:52:00
4:52 AM,30.0,27.0,88,30.31,9.0,East,5.8,-,N/A,,Scattered Clouds,100,2013-03-09 09:52:00
5:52 AM,30.0,27.0,88,30.31,9.0,East,6.9,-,N/A,,Clear,90,2013-03-09 10:52:00
6:52 AM,30.0,27.0,88,30.30,10.0,East,6.9,-,N/A,,Scattered Clouds,90,2013-03-09 11:52:00
7:52 AM,33.1,28.0,82,30.30,10.0,ESE,6.9,-,N/A,,Mostly Cloudy,120,2013-03-09 12:52:00
8:52 AM,35.1,28.0,76,30.30,10.0,ESE,10.4,-,N/A,,Mostly Cloudy,120,2013-03-09 13:52:00
9:52 AM,37.0,28.9,73,30.31,10.0,SE,6.9,-,N/A,,Mostly Cloudy,140,2013-03-09 14:52:00
10:52 AM,41.0,30.9,67,30.29,10.0,SE,6.9,-,N/A,,Mostly Cloudy,130,2013-03-09 15:52:00
11:52 AM,45.0,32.0,60,30.26,10.0,SE,10.4,-,N/A,,Mostly Cloudy,140,2013-03-09 16:52:00
12:52 PM,48.0,33.1,56,30.24,10.0,ESE,8.1,-,N/A,,Mostly Cloudy,120,2013-03-09 17:52:00
1:52 PM,51.1,33.1,50,30.20,10.0,SE,10.4,-,N/A,,Mostly Cloudy,130,2013-03-09 18:52:00
2:52 PM,54.0,34.0,47,30.17,10.0,SE,8.1,-,N/A,,Mostly Cloudy,140,2013-03-09 19:52:00
3:52 PM,55.0,34.0,45,30.14,10.0,SSE,8.1,-,N/A,,Mostly Cloudy,150,2013-03-09 20:52:00
4:52 PM,57.0,33.1,40,30.12,10.0,South,11.5,-,N/A,,Mostly Cloudy,170,2013-03-09 21:52:00
6:52 PM,53.1,34.0,48,30.12,10.0,SSE,8.1,-,N/A,,Overcast,160,2013-03-09 23:52:00
7:52 PM,52.0,34.0,50,30.10,10.0,SSE,8.1,-,N/A,,Overcast,150,2013-03-10 00:52:00
8:52 PM,51.1,36.0,56,30.09,10.0,SSE,9.2,-,N/A,,Overcast,150,2013-03-10 01:52:00
9:52 PM,52.0,35.1,53,30.07,10.0,SSE,6.9,-,N/A,,Overcast,160,2013-03-10 02:52:00
10:52 PM,53.1,33.1,47,30.05,10.0,SSE,13.8,-,N/A,,Overcast,160,2013-03-10 03:52:00
11:52 PM,50.0,35.1,57,30.04,10.0,South,8.1,-,N/A,,Overcast,170,2013-03-10 04:52:00